Location: Unspecified
(41.1637°N, 24.2901°E)
Time: 07:17:38
(UTC+01:00)

ISS - Pass Details

Date: 12 December 2019
Orbit: 411 x 421 km, 51.6° (Epoch: 15 December)

Event Time Altitude Azimuth Distance (km) Brightness Sun altitude
Rises 16:50:21 0° 298° (WNW) 2,357 0.7 -10.3°
Reaches altitude 10° 16:52:34 10° 289° (WNW) 1,492 -0.2 -10.7°
Maximum altitude 16:55:35 32° 224° (SW) 735 -1.8 -11.2°
Drops below altitude 10° 16:58:37 10° 159° (SSE) 1,489 -1.0 -11.8°
Sets 17:00:50 0° 149° (SSE) 2,350 -0.1 -12.2°
